YAOGAN-7

Last updated on Mon Sep 21 2026 00:02:45 GMT+0000 (Coordinated Universal Time)

1 36110U 09069A 26263.00115017 .00000242 00000+0 40639-4 0 9992 2 36110 97.9909 148.2105 0025948 93.1010 267.3171 14.78081374903630
UTC large
Height (km)
Speed (km/s)
/
Latitude / Longitude
Inclination (degrees)
Orbital Period (minutes)
Azimuth
Elevation
Range (km)
Doppler Factor

Next 0 passes for location: London (51.5072 / 0.1276)

No passes found over London.
YAOGAN-7